Kezdőlap
METAR-TAF:

METAR-TAF

Repülőterek :

Fillmore County Airport

Preston, Minnesota, Amerikai Egyesült Államok

földrajzi szélesség: 43-40-36N, földrajzi hosszúság: 092-10-47W, magasság: 389 m

Jelenlegi meteorológiai megfigyelések

A jelentés 14 perccel ezelõtt készült, 14:56 UTC
Dél-délkeleti szél 6 kt
Hőmérséklet 7°C
Páratartalom 61%
Légköri nyomás 1016 hPa
Látótávolság: 16.1 km
Borult 1900 lábon

METAR: KFKA 061456Z AUTO 15006KT 10SM OVC019 07/00 A2999 RMK AO2 T00660002

Idő: 10:10 (15:10 UTC)


TAF: hiányzik

Meteorológiai megfigyelések és előrejelzések több, mint 4000 repülőtéren (METAR és TAF jelentéseket).

A térképen piros és sárga pontok jelzik az elérhető meteorológiai állomásokat.

Mozgassa az egeret a pont fölött, hogy megjelenjen az állomás neve.

Azután kattintson az időjárási megfigyelések és előrejelzések megtekintéséhez.

A térkép megváltoztatása: kattintson a fekete keresztel jelölt zöld gombra ráközelítéshez, a vonallal jelölt zöld gombra távolításhoz, vagy a zöld nyilakra a szomszédos térképek eléréséhez.


METAR-TAF: